Location: Miles
(41.4492°N, 81.6087°W)
Time: 18:23:37
(UTC+00:00)

Transit 2A - Pass Details

Date: 18 September 2024
Orbit: 590 x 960 km, 66.7° (Epoch: 05 October)

Event Time Altitude Azimuth Distance (km) Brightness Sun altitude
Rises 06:27:26 0° 337° (NNW) 3,646 9.9 -44.3°
Reaches altitude 10° 06:30:50 10° 354° (N) 2,676 9.3 -44.0°
Enters shadow 06:35:08 20° 37° (NE) 2,010 8.6 -43.7°
Maximum altitude 06:35:18 20° 39° (NE) 2,007 - -43.7°
Drops below altitude 10° 06:39:34 10° 85° (E) 2,553 - -43.3°
Sets 06:42:42 0° 102° (ESE) 3,426 - -43.0°
